TimeEST,TemperatureF,Dew PointF,Humidity,Sea Level PressureIn,VisibilityMPH,Wind Direction,Wind SpeedMPH,Gust SpeedMPH,PrecipitationIn,Events,Conditions,WindDirDegrees,DateUTC
12:53 AM,30.9,17.1,57,30.50,10.0,North,6.9,-,N/A,,Clear,350,2013-12-08 05:53:00
1:53 AM,28.9,17.1,61,30.51,10.0,NNW,4.6,-,N/A,,Clear,340,2013-12-08 06:53:00
2:53 AM,26.1,15.1,63,30.52,10.0,NW,4.6,-,N/A,,Clear,320,2013-12-08 07:53:00
3:53 AM,26.1,16.0,66,30.54,10.0,North,4.6,-,N/A,,Clear,350,2013-12-08 08:53:00
4:53 AM,21.0,12.9,71,30.55,10.0,NNW,5.8,-,N/A,,Clear,340,2013-12-08 09:53:00
5:53 AM,24.1,16.0,71,30.57,10.0,NNW,4.6,-,N/A,,Clear,340,2013-12-08 10:53:00
6:53 AM,19.0,12.0,74,30.57,10.0,North,4.6,-,N/A,,Clear,360,2013-12-08 11:53:00
7:53 AM,24.1,18.0,77,30.58,10.0,Calm,Calm,-,N/A,,Clear,0,2013-12-08 12:53:00
8:53 AM,32.0,21.9,66,30.60,10.0,NNE,5.8,-,N/A,,Clear,20,2013-12-08 13:53:00
9:53 AM,33.1,21.0,61,30.60,10.0,NNE,9.2,-,N/A,,Clear,20,2013-12-08 14:53:00
10:53 AM,33.1,19.9,59,30.59,10.0,NE,6.9,-,N/A,,Scattered Clouds,40,2013-12-08 15:53:00
11:53 AM,34.0,19.0,54,30.57,10.0,NE,6.9,-,N/A,,Overcast,40,2013-12-08 16:53:00
12:53 PM,33.1,19.0,56,30.53,10.0,NE,5.8,-,N/A,,Overcast,50,2013-12-08 17:53:00
1:53 PM,34.0,19.9,56,30.54,10.0,NNE,6.9,-,N/A,,Overcast,20,2013-12-08 18:53:00
2:53 PM,34.0,21.0,59,30.54,10.0,Calm,Calm,-,N/A,,Overcast,0,2013-12-08 19:53:00
3:53 PM,33.1,19.9,59,30.53,10.0,Calm,Calm,-,N/A,,Overcast,0,2013-12-08 20:53:00
4:53 PM,33.1,21.0,61,30.56,5.0,Calm,Calm,-,0.00,Snow,Light Snow,0,2013-12-08 21:53:00
5:25 PM,32.0,21.2,64,30.55,2.5,NE,4.6,-,0.00,Snow,Light Snow,40,2013-12-08 22:25:00
5:42 PM,30.2,21.2,69,30.53,2.5,NE,3.5,-,0.00,Snow,Light Snow,50,2013-12-08 22:42:00
5:53 PM,30.9,21.9,69,30.53,3.0,ENE,3.5,-,0.00,Snow,Light Snow,60,2013-12-08 22:53:00
6:04 PM,30.2,23.0,75,30.54,2.5,NE,3.5,-,0.00,Snow,Light Snow,40,2013-12-08 23:04:00
6:24 PM,30.2,23.0,75,30.55,4.0,NE,4.6,-,0.00,Snow,Light Snow,40,2013-12-08 23:24:00
6:42 PM,30.2,24.8,80,30.53,2.5,ENE,3.5,-,0.00,Snow,Light Snow,70,2013-12-08 23:42:00
6:48 PM,30.2,24.8,80,30.54,2.5,ENE,3.5,-,0.00,Snow,Light Snow,70,2013-12-08 23:48:00
6:53 PM,30.9,24.1,76,30.54,2.5,ENE,3.5,-,0.00,Snow,Light Snow,70,2013-12-08 23:53:00
7:15 PM,30.2,24.8,80,30.54,1.8,NE,3.5,-,0.01,Snow,Light Snow,40,2013-12-09 00:15:00
7:24 PM,30.2,24.8,80,30.53,3.0,NE,3.5,-,0.01,Snow,Light Snow,40,2013-12-09 00:24:00
7:38 PM,30.2,24.8,80,30.52,7.0,NE,5.8,-,0.01,Snow,Light Snow,50,2013-12-09 00:38:00
7:53 PM,30.9,26.1,82,30.52,7.0,NE,5.8,-,0.01,Snow,Light Snow,50,2013-12-09 00:53:00
8:53 PM,32.0,26.1,79,30.50,9.0,ENE,6.9,-,0.00,,Overcast,60,2013-12-09 01:53:00
9:53 PM,32.0,26.1,79,30.45,10.0,ENE,6.9,-,0.00,,Overcast,70,2013-12-09 02:53:00
10:23 PM,32.0,26.6,80,30.42,7.0,NE,8.1,-,N/A,,Overcast,50,2013-12-09 03:23:00
10:50 PM,32.0,26.6,80,30.41,5.0,ENE,10.4,-,0.00,Rain,Light Freezing Rain,60,2013-12-09 03:50:00
10:51 PM,32.0,27.0,82,30.41,5.0,ENE,10.4,17.3,0.00,Rain,Light Freezing Rain,60,2013-12-09 03:51:00
11:05 PM,32.0,28.4,87,30.42,2.5,ENE,8.1,-,0.00,Rain,Light Freezing Rain,60,2013-12-09 04:05:00
11:15 PM,32.0,28.4,87,30.42,3.0,NE,9.2,-,0.01,Rain,Light Freezing Rain,50,2013-12-09 04:15:00
11:51 PM,33.8,28.4,81,30.41,2.5,NE,11.5,-,0.01,Rain,Light Freezing Rain,50,2013-12-09 04:51:00
11:53 PM,33.1,28.9,85,30.41,2.5,NE,11.5,-,0.01,Rain,Light Freezing Rain,40,2013-12-09 04:53:00